Date String (YYYY-MM-DD hh:mm:ss) UTC,Instrument flags,Ambient pressure (hPa),Sample flow (lpm),Bypass flow (lpm),Sample temperature (°C),Ambient temperature (°C),ASC tube jacket temperature (°C),LED temperature (°C),Box temperature (°C),Sample RH (%),Span deviation,Mass concentration (μg/m³),Mass concentration (μg/m³),Mass concentration (μg/m³)
DateTimeUTC,F1_M11,P_M11,Q1_M11,Q2_M11,T1_M11,T2_M11,T3_M11,T4_M11,T5_M11,U1_M11,ZSPAN_M11,X0_M11,X2_M11,X1_M11
2022-12-19 23:00:00,,0825.7,4.96,0.00,22.1,21.9,00.0,30.8,24.0,04.9,0000.0,0003.14,0001.31,0000.86
2022-12-19 23:01:00,,0825.8,5.03,0.00,22.1,21.5,00.0,30.9,23.9,04.9,0000.0,0002.41,0001.26,0000.86
2022-12-19 23:02:00,,0825.9,4.99,0.00,22.1,21.2,00.0,30.9,23.8,04.9,0000.0,0002.33,0001.22,0000.85
2022-12-19 23:03:00,,0825.8,5.00,0.00,22.1,21.0,00.0,30.9,23.8,04.9,0000.0,0002.54,0001.24,0000.85
2022-12-19 23:04:00,,0825.8,5.02,0.00,22.0,20.8,00.0,30.9,23.7,04.8,0000.0,0003.29,0001.29,0000.85
2022-12-19 23:05:00,,0825.6,4.95,0.00,22.0,20.6,00.0,30.9,23.6,04.8,0000.0,0003.29,0001.30,0000.85
2022-12-19 23:06:00,,0825.7,5.02,0.00,22.0,20.4,00.0,30.8,23.6,04.8,0000.0,0003.30,0001.30,0000.86
2022-12-19 23:07:00,,0825.7,5.04,0.00,21.9,20.3,00.0,30.8,23.5,04.9,0000.0,0003.22,0001.28,0000.86
2022-12-19 23:08:00,,0825.7,4.99,0.00,21.9,20.2,00.0,30.8,23.5,04.9,0000.0,0003.23,0001.29,0000.87
2022-12-19 23:09:00,,0825.6,4.98,0.00,21.8,20.1,00.0,30.8,23.4,04.9,0000.0,0003.32,0001.29,0000.87
2022-12-19 23:10:00,,0825.6,5.03,0.00,21.8,20.0,00.0,30.8,23.4,04.9,0000.0,0003.31,0001.28,0000.88
2022-12-19 23:11:00,,0825.8,5.02,0.00,21.8,20.1,00.0,30.8,23.4,04.9,0000.0,0003.57,0001.27,0000.87
2022-12-19 23:12:00,,0825.7,4.97,0.00,21.8,21.1,00.0,30.7,23.7,04.9,0000.0,0004.52,0001.30,0000.88
2022-12-19 23:13:00,,0825.7,5.02,0.00,22.0,22.0,00.0,30.7,24.0,04.8,0000.0,0004.65,0001.33,0000.88
2022-12-19 23:14:00,,0825.7,4.96,0.00,22.1,21.9,00.0,30.8,24.0,04.8,0000.0,0004.40,0001.27,0000.89
2022-12-19 23:15:00,,0825.9,5.02,0.00,22.1,21.5,00.0,30.8,23.9,04.8,0000.0,0003.59,0001.20,0000.89
2022-12-19 23:16:00,,0825.7,5.02,0.00,22.0,21.2,00.0,30.8,23.8,04.8,0000.0,0004.60,0001.19,0000.89
2022-12-19 23:17:00,,0825.6,4.95,0.00,22.0,20.9,00.0,30.8,23.7,04.8,0000.0,0004.76,0001.22,0000.88
2022-12-19 23:18:00,,0825.7,5.02,0.00,22.0,20.7,00.0,30.8,23.6,04.8,0000.0,0004.77,0001.24,0000.89
2022-12-19 23:19:00,,0825.6,5.01,0.00,22.0,20.5,00.0,30.8,23.5,04.8,0000.0,0004.73,0001.22,0000.88
2022-12-19 23:20:00,,0825.6,4.95,0.00,21.9,20.3,00.0,30.8,23.5,04.8,0000.0,0005.01,0001.19,0000.88
2022-12-19 23:21:00,,0825.7,5.03,0.00,21.9,20.2,00.0,30.8,23.4,04.8,0000.0,0004.90,0001.16,0000.87
2022-12-19 23:22:00,,0825.8,5.02,0.00,21.8,20.1,00.0,30.8,23.4,04.9,0000.0,0004.48,0001.13,0000.87
2022-12-19 23:23:00,,0825.7,4.97,0.00,21.8,20.0,00.0,30.8,23.3,04.9,0000.0,0003.60,0001.11,0000.88
2022-12-19 23:24:00,,0825.7,4.99,0.00,21.7,20.0,00.0,30.7,23.3,05.0,0000.0,0003.63,0001.12,0000.87
2022-12-19 23:25:00,,0825.8,5.04,0.00,21.8,20.7,00.0,30.7,23.5,04.9,0000.0,0003.71,0001.11,0000.86
2022-12-19 23:26:00,,0825.9,4.97,0.00,21.9,21.8,00.0,30.7,23.8,04.9,0000.0,0003.90,0001.15,0000.86
2022-12-19 23:27:00,,0825.7,5.04,0.00,22.0,21.9,00.0,30.7,23.9,04.8,0000.0,0003.16,0001.17,0000.86
2022-12-19 23:28:00,,0825.8,4.96,0.00,22.0,21.5,00.0,30.8,23.8,04.8,0000.0,0003.02,0001.19,0000.87
2022-12-19 23:29:00,,0825.6,5.02,0.00,22.0,21.0,00.0,30.8,23.7,04.8,0000.0,0003.06,0001.19,0000.87
2022-12-19 23:30:00,,0825.8,5.01,0.00,21.9,20.8,00.0,30.8,23.6,04.8,0000.0,0003.08,0001.19,0000.87
2022-12-19 23:31:00,,0825.8,4.95,0.00,21.9,20.5,00.0,30.8,23.5,04.9,0000.0,0003.15,0001.20,0000.88
2022-12-19 23:32:00,,0825.7,5.02,0.00,21.8,20.3,00.0,30.8,23.4,04.9,0000.0,0003.23,0001.22,0000.87
2022-12-19 23:33:00,,0825.7,5.02,0.00,21.8,20.1,00.0,30.7,23.3,04.9,0000.0,0003.81,0001.25,0000.87
2022-12-19 23:34:00,,0825.7,4.98,0.00,21.8,20.0,00.0,30.7,23.3,04.9,0000.0,0004.23,0001.23,0000.87
2022-12-19 23:35:00,,0825.8,4.97,0.00,21.7,19.9,00.0,30.7,23.2,04.9,0000.0,0004.12,0001.21,0000.88
2022-12-19 23:36:00,,0825.9,5.03,0.00,21.7,19.9,00.0,30.7,23.2,04.9,0000.0,0004.08,0001.21,0000.88
2022-12-19 23:37:00,,0825.9,5.03,0.00,21.7,20.9,00.0,30.6,23.5,04.9,0000.0,0004.01,0001.22,0000.88
2022-12-19 23:38:00,,0825.9,4.98,0.00,21.9,21.9,00.0,30.6,23.8,04.8,0000.0,0003.81,0001.18,0000.88
2022-12-19 23:39:00,,0825.9,5.00,0.00,21.9,21.8,00.0,30.7,23.8,04.7,0000.0,0003.60,0001.14,0000.87
2022-12-19 23:40:00,,0825.9,5.01,0.00,21.9,21.3,00.0,30.7,23.7,04.7,0000.0,0003.44,0001.11,0000.86
2022-12-19 23:41:00,,0825.9,5.03,0.00,21.9,21.0,00.0,30.7,23.6,04.8,0000.0,0003.44,0001.11,0000.85
2022-12-19 23:42:00,,0826.0,4.94,0.00,21.9,20.7,00.0,30.7,23.5,04.7,0000.0,0003.09,0001.09,0000.84
2022-12-19 23:43:00,,0825.9,5.02,0.00,21.8,20.4,00.0,30.7,23.4,04.7,0000.0,0002.65,0001.10,0000.86
2022-12-19 23:44:00,,0826.0,5.02,0.00,21.8,20.2,00.0,30.7,23.3,04.8,0000.0,0002.53,0001.12,0000.86
2022-12-19 23:45:00,,0825.9,4.98,0.00,21.7,20.1,00.0,30.7,23.2,04.8,0000.0,0001.97,0001.15,0000.85
2022-12-19 23:46:00,,0825.8,4.99,0.00,21.7,19.9,00.0,30.7,23.2,04.9,0000.0,0001.96,0001.14,0000.84
2022-12-19 23:47:00,,0825.8,5.02,0.00,21.6,19.8,00.0,30.6,23.1,04.9,0000.0,0001.92,0001.13,0000.84
2022-12-19 23:48:00,,0825.9,5.02,0.00,21.6,20.1,00.0,30.6,23.2,04.8,0000.0,0001.89,0001.12,0000.83
2022-12-19 23:49:00,,0826.0,4.98,0.00,21.7,21.3,00.0,30.6,23.5,04.8,0000.0,0001.92,0001.14,0000.84
2022-12-19 23:50:00,,0825.9,4.99,0.00,21.8,22.0,00.0,30.6,23.8,04.8,0000.0,0001.98,0001.16,0000.85
2022-12-19 23:51:00,,0825.9,5.01,0.00,21.9,21.7,00.0,30.7,23.8,04.7,0000.0,0002.02,0001.17,0000.85
2022-12-19 23:52:00,,0825.8,5.00,0.00,21.9,21.3,00.0,30.7,23.7,04.7,0000.0,0002.04,0001.18,0000.86
2022-12-19 23:53:00,,0825.9,5.01,0.00,21.9,20.9,00.0,30.7,23.5,04.7,0000.0,0002.01,0001.17,0000.85
2022-12-19 23:54:00,,0825.8,5.04,0.00,21.8,20.6,00.0,30.7,23.4,04.7,0000.0,0001.94,0001.14,0000.85
2022-12-19 23:55:00,,0825.8,4.94,0.00,21.8,20.3,00.0,30.7,23.3,04.7,0000.0,0001.67,0001.10,0000.85
2022-12-19 23:56:00,,0825.9,5.01,0.00,21.7,20.1,00.0,30.7,23.2,04.7,0000.0,0001.57,0001.07,0000.85
2022-12-19 23:57:00,,0825.8,5.02,0.00,21.7,20.0,00.0,30.6,23.2,04.7,0000.0,0001.55,0001.05,0000.84
2022-12-19 23:58:00,,0825.8,4.99,0.00,21.6,19.8,00.0,30.6,23.1,04.7,0000.0,0001.62,0001.08,0000.85
2022-12-19 23:59:00,,0825.9,4.98,0.00,21.6,19.7,00.0,30.6,23.1,04.7,0000.0,0001.53,0001.06,0000.86
